DAL888X PGUM-NSTU

Flight info

Callsign DAL888X
Flight time 6h 47m
Altitude 34999
Route CLANS A222 ADUFO/N0454F350 A222 PNI A578 NI A584 UPDIX/N0443F370 A584 FA B577 ALOHI
Aircraft E195/M-SDE3GILORVW/S

Departure

Time 2026-05-04 13:32
Airport Antonio B. Won Pat International Airport (PGUM)

Arrival

Time 2026-05-04 20:19
Airport Pago Pago International Airport (NSTU)
Time Latitude Longitude Altitude Speed Heading
2026-05-04 13:07 13.49029 144.80277 312 ft 0 kts 333°
2026-05-04 13:24 13.49017 144.80283 312 ft 8 kts 334°
2026-05-04 13:25 13.48936 144.80350 312 ft 0 kts 256°
2026-05-04 13:25 13.48935 144.80345 312 ft 3 kts 256°
2026-05-04 13:25 13.48924 144.80322 312 ft 7 kts 243°
2026-05-04 13:26 13.48869 144.80256 312 ft 19 kts 228°
2026-05-04 13:26 13.48789 144.80097 312 ft 30 kts 244°
2026-05-04 13:26 13.48690 144.79879 312 ft 35 kts 246°
2026-05-04 13:26 13.48585 144.79655 312 ft 35 kts 245°
2026-05-04 13:27 13.48485 144.79431 312 ft 35 kts 245°
2026-05-04 13:27 13.48374 144.79191 312 ft 39 kts 245°
2026-05-04 13:27 13.48255 144.78936 312 ft 40 kts 243°
2026-05-04 13:27 13.48133 144.78670 312 ft 42 kts 245°
2026-05-04 13:28 13.48014 144.78412 312 ft 28 kts 231°
2026-05-04 13:28 13.47908 144.78441 312 ft 6 kts 76°
2026-05-04 13:28 13.47911 144.78448 312 ft 0 kts 64°
2026-05-04 13:31 13.47914 144.78454 312 ft 10 kts 64°
2026-05-04 13:31 13.48142 144.78947 313 ft 140 kts 64°
2026-05-04 13:32 13.48644 144.80053 1118 ft 190 kts 66°
2026-05-04 13:32 13.49167 144.81319 2202 ft 202 kts 71°
2026-05-04 13:32 13.49244 144.82730 3255 ft 206 kts 97°
2026-05-04 13:32 13.48634 144.84020 4351 ft 212 kts 124°
2026-05-04 13:33 13.47601 144.85057 5455 ft 212 kts 134°
2026-05-04 13:33 13.46537 144.86080 6429 ft 220 kts 131°
2026-05-04 13:33 13.45433 144.87205 7386 ft 231 kts 132°
2026-05-04 13:33 13.44201 144.88406 8070 ft 262 kts 131°
2026-05-04 13:34 13.43116 144.89847 9372 ft 254 kts 119°
2026-05-04 13:34 13.42368 144.91477 10391 ft 263 kts 111°
2026-05-04 13:34 13.41629 144.93285 11028 ft 294 kts 111°
2026-05-04 13:34 13.40796 144.95351 11387 ft 336 kts 111°
2026-05-04 13:35 13.39877 144.97641 12195 ft 362 kts 111°
2026-05-04 13:35 13.37907 145.02552 14950 ft 381 kts 111°
2026-05-04 13:35 13.36907 145.05059 16404 ft 382 kts 111°
2026-05-04 13:36 13.35882 145.07627 17476 ft 394 kts 111°
2026-05-04 13:36 13.34838 145.10247 18683 ft 400 kts 111°
2026-05-04 13:36 13.33767 145.12932 19660 ft 412 kts 111°
2026-05-04 13:36 13.32681 145.15659 20694 ft 421 kts 111°
2026-05-04 13:37 13.31569 145.18450 21857 ft 426 kts 112°
2026-05-04 13:37 13.30443 145.21273 22891 ft 433 kts 112°
2026-05-04 13:37 13.29233 145.24034 23635 ft 410 kts 122°
2026-05-04 13:37 13.28041 145.25490 24218 ft 407 kts 133°
2026-05-04 13:38 13.25955 145.28779 25406 ft 424 kts 117°
2026-05-04 13:38 13.24666 145.31508 26260 ft 431 kts 115°
2026-05-04 13:38 13.23420 145.34286 27108 ft 437 kts 114°
2026-05-04 13:38 13.22141 145.37176 27977 ft 443 kts 114°
2026-05-04 13:39 13.20870 145.40059 28832 ft 448 kts 114°
2026-05-04 13:39 13.19582 145.42980 29687 ft 455 kts 114°
2026-05-04 13:39 13.18272 145.45953 30547 ft 460 kts 114°
2026-05-04 13:39 13.16956 145.48939 31397 ft 464 kts 114°
2026-05-04 13:40 13.15633 145.51940 32244 ft 465 kts 115°
2026-05-04 13:40 13.14309 145.54940 33089 ft 463 kts 115°
2026-05-04 13:40 13.12985 145.57940 33933 ft 460 kts 115°
2026-05-04 13:40 13.11676 145.60900 34757 ft 457 kts 115°
2026-05-04 13:41 13.10351 145.63895 34958 ft 467 kts 115°
2026-05-04 13:41 13.07635 145.70037 35003 ft 479 kts 115°
2026-05-04 13:42 13.03497 145.79389 35000 ft 482 kts 115°
2026-05-04 13:42 13.00734 145.85628 34999 ft 482 kts 115°
2026-05-04 13:43 12.97971 145.91860 34999 ft 482 kts 115°
2026-05-04 13:43 12.95206 145.98094 35014 ft 482 kts 115°
2026-05-04 13:44 12.92430 146.04347 35036 ft 482 kts 115°
2026-05-04 13:44 12.89661 146.10579 35057 ft 481 kts 115°
2026-05-04 13:45 12.86887 146.16819 35080 ft 481 kts 115°
2026-05-04 13:45 12.84113 146.23052 35080 ft 478 kts 115°
2026-05-04 13:46 12.81371 146.29211 35083 ft 477 kts 115°
2026-05-04 13:46 12.78740 146.35421 35083 ft 477 kts 114°
2026-05-04 13:47 12.76152 146.41667 35084 ft 477 kts 114°
2026-05-04 13:47 12.73574 146.47891 35083 ft 477 kts 114°
2026-05-04 13:48 12.70994 146.54114 35083 ft 476 kts 114°
2026-05-04 13:48 12.68415 146.60328 35083 ft 476 kts 114°
2026-05-04 13:49 12.65824 146.66568 35082 ft 476 kts 114°
2026-05-04 13:49 12.63242 146.72779 35082 ft 476 kts 114°
2026-05-04 13:50 12.60660 146.78988 35081 ft 475 kts 114°
2026-05-04 13:50 12.58081 146.85182 35079 ft 475 kts 114°
2026-05-04 13:51 12.55488 146.91407 35072 ft 475 kts 114°
2026-05-04 13:51 12.52906 146.97602 35056 ft 474 kts 114°
2026-05-04 13:52 12.49019 147.06910 35052 ft 474 kts 114°
2026-05-04 13:53 12.46436 147.13088 35055 ft 473 kts 114°
2026-05-04 13:53 12.43858 147.19253 35055 ft 472 kts 114°
2026-05-04 13:54 12.39986 147.28501 35054 ft 472 kts 114°
2026-05-04 13:55 12.36131 147.37699 35055 ft 470 kts 114°
2026-05-04 13:55 12.32283 147.46870 35055 ft 469 kts 114°
2026-05-04 13:56 12.29710 147.52996 35055 ft 469 kts 114°
2026-05-04 13:57 12.25869 147.62135 35053 ft 467 kts 114°
2026-05-04 13:58 12.20744 147.74310 35055 ft 467 kts 114°
2026-05-04 13:58 12.16915 147.83397 35054 ft 466 kts 114°
2026-05-04 13:59 12.14359 147.89458 35033 ft 465 kts 114°
2026-05-04 14:00 12.10521 147.98549 34986 ft 465 kts 114°
2026-05-04 14:00 12.06692 148.07610 34937 ft 465 kts 114°
2026-05-04 14:01 12.04129 148.13669 34925 ft 465 kts 114°
2026-05-04 14:02 12.00296 148.22724 34925 ft 465 kts 114°
2026-05-04 14:02 11.97739 148.28758 34934 ft 464 kts 114°
2026-05-04 14:03 11.95171 148.34815 34948 ft 464 kts 114°
2026-05-04 14:03 11.92614 148.40842 34963 ft 464 kts 114°
2026-05-04 14:04 11.88777 148.49879 34987 ft 463 kts 114°
2026-05-04 14:04 11.86213 148.55910 35002 ft 463 kts 114°
2026-05-04 14:05 11.82382 148.64914 35017 ft 463 kts 114°
2026-05-04 14:06 11.79827 148.70916 35020 ft 463 kts 114°
2026-05-04 14:06 11.77261 148.76939 35020 ft 463 kts 114°
2026-05-04 14:07 11.74704 148.82939 35013 ft 463 kts 114°
2026-05-04 14:07 11.72153 148.88924 34989 ft 462 kts 114°
2026-05-04 14:08 11.69598 148.94910 34964 ft 462 kts 114°
2026-05-04 14:08 11.67036 149.00913 34938 ft 462 kts 114°
2026-05-04 14:09 11.63205 149.09877 34919 ft 462 kts 114°
2026-05-04 14:10 11.59354 149.18884 34917 ft 461 kts 114°
2026-05-04 14:10 11.56800 149.24849 34918 ft 461 kts 114°
2026-05-04 14:11 11.54246 149.30810 34917 ft 461 kts 114°
2026-05-04 14:11 11.50401 149.39778 34919 ft 461 kts 114°
2026-05-04 14:12 11.47840 149.45748 34928 ft 461 kts 114°
2026-05-04 14:13 11.43999 149.54690 34941 ft 461 kts 114°
2026-05-04 14:13 11.41429 149.60671 34950 ft 461 kts 114°
2026-05-04 14:14 11.38867 149.66627 34960 ft 461 kts 115°
2026-05-04 14:14 11.35020 149.75566 34972 ft 461 kts 115°
2026-05-04 14:15 11.29882 149.87490 34946 ft 461 kts 114°
2026-05-04 14:16 11.26096 149.96267 34923 ft 461 kts 114°
2026-05-04 14:17 11.22225 150.05233 34908 ft 460 kts 114°
2026-05-04 14:18 11.18357 150.14181 34907 ft 461 kts 114°
2026-05-04 14:19 11.13198 150.26105 34906 ft 461 kts 114°
2026-05-04 14:19 11.10607 150.32087 34888 ft 461 kts 114°
2026-05-04 14:20 11.08030 150.38034 34888 ft 461 kts 114°
2026-05-04 14:20 11.05453 150.43977 34888 ft 461 kts 114°
2026-05-04 14:21 11.01621 150.52808 34887 ft 461 kts 114°
2026-05-04 14:21 10.99037 150.58757 34887 ft 461 kts 114°
2026-05-04 14:22 10.96453 150.64703 34887 ft 461 kts 114°
2026-05-04 14:22 10.93862 150.70661 34890 ft 461 kts 114°
2026-05-04 14:23 10.89985 150.79569 34890 ft 462 kts 114°
2026-05-04 14:24 10.87391 150.85527 34892 ft 461 kts 114°
2026-05-04 14:24 10.84791 150.91492 34896 ft 461 kts 114°
2026-05-04 14:25 10.82199 150.97437 34897 ft 461 kts 114°
2026-05-04 14:25 10.78305 151.06359 34892 ft 462 kts 114°
2026-05-04 14:26 10.75698 151.12329 34886 ft 462 kts 114°
2026-05-04 14:26 10.73094 151.18287 34878 ft 462 kts 114°
2026-05-04 14:27 10.70490 151.24244 34872 ft 462 kts 114°
2026-05-04 14:27 10.67887 151.30191 34872 ft 463 kts 114°
2026-05-04 14:28 10.65264 151.36184 34871 ft 463 kts 114°
2026-05-04 14:28 10.62654 151.42142 34871 ft 463 kts 114°
2026-05-04 14:29 10.57416 151.54089 34871 ft 464 kts 114°
2026-05-04 14:30 10.54792 151.60067 34870 ft 464 kts 114°
2026-05-04 14:31 10.50857 151.69028 34872 ft 465 kts 114°
2026-05-04 14:32 10.45583 151.81024 34872 ft 465 kts 114°
2026-05-04 14:32 10.43030 151.86827 34873 ft 466 kts 114°
2026-05-04 14:33 10.40395 151.92812 34872 ft 466 kts 114°
2026-05-04 14:33 10.37747 151.98823 34876 ft 466 kts 114°
2026-05-04 14:34 10.35105 152.04817 34880 ft 467 kts 114°
2026-05-04 14:34 10.32458 152.10819 34885 ft 467 kts 114°
2026-05-04 14:35 10.29802 152.16836 34890 ft 467 kts 114°
2026-05-04 14:35 10.27157 152.22827 34890 ft 467 kts 114°
2026-05-04 14:36 10.24504 152.28831 34889 ft 468 kts 114°
2026-05-04 14:36 10.21839 152.34861 34889 ft 468 kts 114°
2026-05-04 14:37 10.19184 152.40862 34888 ft 468 kts 114°
2026-05-04 14:37 10.16525 152.46871 34885 ft 468 kts 114°
2026-05-04 14:38 10.13862 152.52884 34884 ft 468 kts 114°
2026-05-04 14:38 10.11187 152.58920 34882 ft 469 kts 114°
2026-05-04 14:39 10.08516 152.64945 34881 ft 470 kts 114°
2026-05-04 14:39 10.05837 152.70983 34881 ft 470 kts 114°
2026-05-04 14:40 10.01802 152.80073 34881 ft 471 kts 114°
2026-05-04 14:40 9.99114 152.86123 34881 ft 471 kts 114°
2026-05-04 14:41 9.96422 152.92173 34882 ft 473 kts 114°
2026-05-04 14:42 9.91007 153.04351 34887 ft 475 kts 114°
2026-05-04 14:42 9.88305 153.10418 34889 ft 475 kts 114°
2026-05-04 14:43 9.85587 153.16518 34890 ft 477 kts 114°
2026-05-04 14:43 9.82858 153.22641 34890 ft 478 kts 114°
2026-05-04 14:44 9.80187 153.28629 34890 ft 478 kts 114°
2026-05-04 14:44 9.77451 153.34758 34891 ft 479 kts 114°
2026-05-04 14:45 9.74711 153.40895 34891 ft 480 kts 114°
2026-05-04 14:45 9.71957 153.47060 34891 ft 481 kts 114°
2026-05-04 14:46 9.69205 153.53216 34892 ft 481 kts 115°
2026-05-04 14:46 9.66447 153.59380 34891 ft 481 kts 115°
2026-05-04 14:47 9.63681 153.65562 34891 ft 482 kts 115°
2026-05-04 14:47 9.60920 153.71729 34890 ft 482 kts 115°
2026-05-04 14:48 9.58157 153.77895 34889 ft 482 kts 115°
2026-05-04 14:48 9.55394 153.84057 34888 ft 482 kts 115°
2026-05-04 14:49 9.52619 153.90244 34890 ft 482 kts 115°
2026-05-04 14:49 9.49847 153.96420 34893 ft 482 kts 115°
2026-05-04 14:50 9.47081 154.02581 34896 ft 482 kts 115°
2026-05-04 14:50 9.44295 154.08781 34899 ft 482 kts 115°
2026-05-04 14:51 9.41529 154.14933 34900 ft 481 kts 115°
2026-05-04 14:51 9.38456 154.20907 34904 ft 480 kts 121°
2026-05-04 14:52 9.35044 154.26692 34901 ft 480 kts 121°
2026-05-04 14:52 9.31613 154.32477 34900 ft 479 kts 121°
2026-05-04 14:53 9.28195 154.38238 34900 ft 479 kts 121°
2026-05-04 14:53 9.24781 154.43988 34901 ft 478 kts 121°
2026-05-04 14:54 9.21358 154.49750 34899 ft 477 kts 121°
2026-05-04 14:54 9.17954 154.55479 34900 ft 477 kts 121°
2026-05-04 14:55 9.14553 154.61200 34900 ft 476 kts 121°
2026-05-04 14:55 9.11150 154.66921 34899 ft 476 kts 121°
2026-05-04 14:56 9.07817 154.72522 34899 ft 476 kts 121°
2026-05-04 14:56 9.04415 154.78236 34900 ft 475 kts 121°
2026-05-04 14:57 9.01012 154.83949 34902 ft 474 kts 121°
2026-05-04 14:57 8.97612 154.89656 34909 ft 473 kts 121°
2026-05-04 14:58 8.94221 154.95345 34915 ft 473 kts 121°
2026-05-04 14:58 8.91407 155.00062 34920 ft 472 kts 121°
2026-05-04 14:59 8.87454 155.06688 34927 ft 472 kts 121°
2026-05-04 15:00 8.82370 155.15205 34927 ft 472 kts 121°
2026-05-04 15:00 8.78989 155.20866 34927 ft 472 kts 121°
2026-05-04 15:01 8.73912 155.29361 34926 ft 471 kts 121°
2026-05-04 15:01 8.70533 155.35012 34927 ft 471 kts 121°
2026-05-04 15:02 8.67162 155.40646 34926 ft 470 kts 121°
2026-05-04 15:02 8.63795 155.46273 34926 ft 469 kts 121°
2026-05-04 15:03 8.60419 155.51912 34926 ft 468 kts 120°
2026-05-04 15:03 8.57060 155.57520 34925 ft 469 kts 120°
2026-05-04 15:04 8.53700 155.63127 34925 ft 468 kts 120°
2026-05-04 15:04 8.50332 155.68744 34927 ft 467 kts 120°
2026-05-04 15:05 8.46977 155.74341 34928 ft 467 kts 120°
2026-05-04 15:05 8.43625 155.79925 34930 ft 466 kts 120°
2026-05-04 15:06 8.40273 155.85512 34936 ft 466 kts 120°
2026-05-04 15:07 8.35239 155.93894 34947 ft 466 kts 120°
2026-05-04 15:07 8.31900 155.99452 34952 ft 466 kts 120°
2026-05-04 15:08 8.28590 156.04959 34953 ft 466 kts 120°
2026-05-04 15:08 8.25232 156.10544 34954 ft 466 kts 120°
2026-05-04 15:09 8.21882 156.16124 34956 ft 469 kts 121°
2026-05-04 15:09 8.18507 156.21724 34954 ft 468 kts 121°
2026-05-04 15:10 8.13438 156.30141 34954 ft 468 kts 121°
2026-05-04 15:11 8.08380 156.38539 34953 ft 468 kts 121°
2026-05-04 15:11 8.05007 156.44135 34953 ft 468 kts 121°
2026-05-04 15:12 8.01613 156.49763 34953 ft 470 kts 121°
2026-05-04 15:12 7.98228 156.55372 34953 ft 469 kts 121°
2026-05-04 15:13 7.94846 156.60978 34953 ft 469 kts 121°
2026-05-04 15:13 7.91453 156.66600 34953 ft 470 kts 121°
2026-05-04 15:14 7.88064 156.72212 34955 ft 470 kts 121°
2026-05-04 15:14 7.84672 156.77826 34955 ft 470 kts 121°
2026-05-04 15:15 7.81277 156.83444 34955 ft 471 kts 121°
2026-05-04 15:15 7.77864 156.89089 34954 ft 471 kts 121°
2026-05-04 15:16 7.72761 156.97526 34954 ft 472 kts 121°
2026-05-04 15:17 7.67642 157.05984 34960 ft 472 kts 121°
2026-05-04 15:17 7.62524 157.14435 34967 ft 473 kts 121°
2026-05-04 15:18 7.59104 157.20080 34971 ft 474 kts 121°
2026-05-04 15:19 7.53959 157.28569 34973 ft 474 kts 121°
2026-05-04 15:19 7.48899 157.36914 34973 ft 474 kts 122°
2026-05-04 15:20 7.45467 157.42569 34973 ft 475 kts 122°
2026-05-04 15:20 7.42021 157.48246 34972 ft 475 kts 122°
2026-05-04 15:21 7.38582 157.53910 34972 ft 475 kts 122°
2026-05-04 15:22 7.33419 157.62409 34973 ft 475 kts 122°
2026-05-04 15:22 7.28246 157.70920 34973 ft 476 kts 122°
2026-05-04 15:23 7.24800 157.76587 34973 ft 476 kts 122°
2026-05-04 15:23 7.21355 157.82250 34972 ft 476 kts 122°
2026-05-04 15:24 7.14447 157.93599 34944 ft 476 kts 121°
2026-05-04 15:25 7.10998 157.99263 34922 ft 477 kts 121°
2026-05-04 15:26 7.05777 158.07833 34890 ft 479 kts 121°
2026-05-04 15:26 7.00568 158.16375 34872 ft 479 kts 121°
2026-05-04 15:27 6.94643 158.24428 34875 ft 479 kts 130°
2026-05-04 15:28 6.88175 158.32061 34872 ft 480 kts 130°
2026-05-04 15:29 6.81704 158.39686 34872 ft 479 kts 130°
2026-05-04 15:30 6.66564 158.57510 34872 ft 480 kts 130°
2026-05-04 15:31 6.60170 158.65024 34872 ft 480 kts 130°
2026-05-04 15:32 6.49329 158.77754 34872 ft 480 kts 130°
2026-05-04 15:34 6.38504 158.90455 34871 ft 480 kts 130°
2026-05-04 15:34 6.31997 158.98086 34869 ft 480 kts 130°
2026-05-04 15:35 6.25500 159.05703 34866 ft 480 kts 130°
2026-05-04 15:36 6.18991 159.13329 34863 ft 480 kts 130°
2026-05-04 15:36 6.14665 159.18397 34863 ft 479 kts 130°
2026-05-04 15:37 6.10339 159.23463 34863 ft 479 kts 130°
2026-05-04 15:37 6.06013 159.28527 34864 ft 479 kts 130°
2026-05-04 15:38 6.01672 159.33608 34864 ft 479 kts 130°
2026-05-04 15:38 5.97338 159.38674 34864 ft 480 kts 129°
2026-05-04 15:39 5.93015 159.43737 34864 ft 480 kts 129°
2026-05-04 15:40 5.86498 159.51357 34861 ft 480 kts 129°
2026-05-04 15:40 5.82165 159.56421 34862 ft 480 kts 129°
2026-05-04 15:41 5.77840 159.61476 34861 ft 480 kts 129°
2026-05-04 15:41 5.73486 159.66563 34862 ft 480 kts 129°
2026-05-04 15:42 5.69154 159.71623 34862 ft 479 kts 129°
2026-05-04 15:42 5.64827 159.76677 34863 ft 479 kts 129°
2026-05-04 15:43 5.60503 159.81725 34863 ft 479 kts 129°
2026-05-04 15:43 5.56186 159.86764 34861 ft 479 kts 129°
2026-05-04 15:44 5.51852 159.91821 34855 ft 479 kts 129°
2026-05-04 15:44 5.47516 159.96881 34850 ft 479 kts 129°
2026-05-04 15:45 5.43172 160.01946 34844 ft 479 kts 129°
2026-05-04 15:45 5.38841 160.06997 34838 ft 479 kts 129°
2026-05-04 15:46 5.34513 160.12042 34836 ft 479 kts 129°
2026-05-04 15:46 5.30187 160.17084 34836 ft 479 kts 129°
2026-05-04 15:47 5.25844 160.22144 34836 ft 479 kts 129°
2026-05-04 15:47 5.21512 160.27192 34836 ft 479 kts 129°
2026-05-04 15:48 5.17182 160.32235 34836 ft 478 kts 129°
2026-05-04 15:48 5.10682 160.39805 34836 ft 478 kts 129°
2026-05-04 15:49 5.06360 160.44833 34836 ft 478 kts 129°
2026-05-04 15:49 5.02031 160.49872 34836 ft 478 kts 129°
2026-05-04 15:50 4.97691 160.54922 34837 ft 478 kts 129°
2026-05-04 15:50 4.93374 160.59945 34836 ft 478 kts 129°
2026-05-04 15:51 4.89052 160.64971 34834 ft 478 kts 129°
2026-05-04 15:51 4.84769 160.69951 34835 ft 477 kts 129°
2026-05-04 15:52 4.80497 160.74917 34835 ft 477 kts 129°
2026-05-04 15:52 4.76253 160.79851 34835 ft 477 kts 129°
2026-05-04 15:53 4.71962 160.84837 34832 ft 477 kts 129°
2026-05-04 15:53 4.67813 160.89656 34829 ft 477 kts 129°
2026-05-04 15:54 4.63478 160.94690 34825 ft 477 kts 129°
2026-05-04 15:54 4.59104 160.99772 34821 ft 477 kts 129°
2026-05-04 15:55 4.55073 161.04452 34817 ft 477 kts 129°
2026-05-04 15:55 4.50588 161.09659 34817 ft 476 kts 129°
2026-05-04 15:56 4.46275 161.14664 34817 ft 476 kts 129°
2026-05-04 15:56 4.41957 161.19675 34818 ft 476 kts 129°
2026-05-04 15:57 4.37626 161.24700 34817 ft 476 kts 129°
2026-05-04 15:57 4.33315 161.29701 34817 ft 476 kts 129°
2026-05-04 15:58 4.29009 161.34695 34818 ft 475 kts 129°
2026-05-04 15:58 4.24696 161.39695 34820 ft 475 kts 129°
2026-05-04 15:59 4.20376 161.44704 34823 ft 475 kts 129°
2026-05-04 15:59 4.16073 161.49691 34825 ft 475 kts 129°
2026-05-04 16:00 4.11772 161.54676 34826 ft 474 kts 129°
2026-05-04 16:00 4.07454 161.59678 34826 ft 474 kts 129°
2026-05-04 16:01 4.03155 161.64660 34826 ft 474 kts 129°
2026-05-04 16:01 3.98858 161.69635 34828 ft 474 kts 129°
2026-05-04 16:02 3.94561 161.74611 34828 ft 474 kts 129°
2026-05-04 16:03 3.88104 161.82088 34824 ft 474 kts 129°
2026-05-04 16:03 3.83809 161.87060 34822 ft 474 kts 129°
2026-05-04 16:04 3.79507 161.92039 34820 ft 474 kts 129°
2026-05-04 16:04 3.73044 161.99517 34817 ft 474 kts 129°
2026-05-04 16:05 3.68748 162.04488 34816 ft 474 kts 129°
2026-05-04 16:06 3.62291 162.11956 34816 ft 473 kts 129°
2026-05-04 16:07 3.53703 162.21887 34816 ft 473 kts 129°
2026-05-04 16:08 3.45106 162.31828 34817 ft 473 kts 129°
2026-05-04 16:09 3.34395 162.44209 34816 ft 473 kts 129°
2026-05-04 16:10 3.25805 162.54135 34816 ft 473 kts 129°
2026-05-04 16:11 3.17217 162.64058 34816 ft 473 kts 129°
2026-05-04 16:12 3.04346 162.78921 34818 ft 473 kts 130°
2026-05-04 16:13 2.95759 162.88836 34822 ft 473 kts 130°
2026-05-04 16:14 2.87161 162.98759 34825 ft 473 kts 130°
2026-05-04 16:16 2.76430 163.11142 34825 ft 474 kts 130°
2026-05-04 16:17 2.65666 163.23559 34826 ft 474 kts 130°
2026-05-04 16:18 2.57036 163.33512 34826 ft 475 kts 130°
2026-05-04 16:19 2.46245 163.45953 34826 ft 476 kts 130°
2026-05-04 16:20 2.35413 163.58438 34828 ft 477 kts 130°
2026-05-04 16:22 2.24556 163.70950 34835 ft 478 kts 130°
2026-05-04 16:23 2.11507 163.85982 34836 ft 479 kts 130°
2026-05-04 16:25 1.98448 164.01023 34835 ft 479 kts 130°
2026-05-04 16:26 1.83190 164.18591 34831 ft 479 kts 130°
2026-05-04 16:28 1.72293 164.31142 34830 ft 480 kts 130°
2026-05-04 16:29 1.57064 164.48689 34830 ft 479 kts 130°
2026-05-04 16:31 1.46181 164.61228 34832 ft 479 kts 130°
2026-05-04 16:32 1.33124 164.76267 34832 ft 479 kts 130°
2026-05-04 16:33 1.24427 164.86283 34836 ft 479 kts 130°
2026-05-04 16:34 1.17893 164.93807 34849 ft 479 kts 130°
2026-05-04 16:35 1.04839 165.08838 34859 ft 479 kts 130°
2026-05-04 16:36 0.98320 165.16343 34859 ft 479 kts 130°
2026-05-04 16:37 0.91802 165.23848 34859 ft 478 kts 130°
2026-05-04 16:38 0.83101 165.33864 34857 ft 478 kts 130°
2026-05-04 16:39 0.72233 165.46374 34858 ft 478 kts 130°
2026-05-04 16:40 0.63560 165.56355 34858 ft 478 kts 130°
2026-05-04 16:41 0.52699 165.68856 34858 ft 478 kts 130°
2026-05-04 16:43 0.41841 165.81351 34858 ft 478 kts 131°
2026-05-04 16:43 0.35335 165.88838 34858 ft 477 kts 131°
2026-05-04 16:45 0.22324 166.03811 34858 ft 477 kts 131°
2026-05-04 16:46 0.11602 166.16148 34859 ft 477 kts 131°
2026-05-04 16:47 0.02945 166.26111 34858 ft 477 kts 131°
2026-05-04 16:48 -0.05764 166.36132 34858 ft 477 kts 131°
2026-05-04 16:49 -0.14454 166.46131 34859 ft 477 kts 131°
2026-05-04 16:50 -0.23118 166.56101 34858 ft 477 kts 131°
2026-05-04 16:51 -0.29627 166.63591 34860 ft 477 kts 131°
2026-05-04 16:52 -0.38322 166.73597 34858 ft 477 kts 131°
2026-05-04 16:53 -0.44834 166.81091 34858 ft 476 kts 131°
2026-05-04 16:54 -0.53513 166.91081 34858 ft 476 kts 131°
2026-05-04 16:55 -0.64528 167.07641 34858 ft 476 kts 123°
2026-05-04 16:56 -0.73564 167.21501 34859 ft 476 kts 123°
2026-05-04 16:57 -0.78976 167.29801 34858 ft 476 kts 123°
2026-05-04 16:58 -0.86204 167.40892 34858 ft 476 kts 123°
2026-05-04 17:00 -0.97028 167.57495 34858 ft 476 kts 123°
2026-05-04 17:01 -1.06060 167.71352 34858 ft 476 kts 123°
2026-05-04 17:02 -1.13276 167.82425 34858 ft 476 kts 123°
2026-05-04 17:03 -1.18684 167.90724 34858 ft 476 kts 123°
2026-05-04 17:03 -1.24106 167.99047 34858 ft 476 kts 123°
2026-05-04 17:04 -1.31321 168.10120 34858 ft 476 kts 123°
2026-05-04 17:05 -1.38533 168.21193 34858 ft 476 kts 123°
2026-05-04 17:06 -1.43935 168.29485 34858 ft 476 kts 123°
2026-05-04 17:07 -1.48742 168.36867 34858 ft 476 kts 123°
2026-05-04 17:07 -1.52948 168.43325 34858 ft 476 kts 123°
2026-05-04 17:08 -1.58353 168.51627 34859 ft 476 kts 123°
2026-05-04 17:09 -1.61973 168.57187 34859 ft 476 kts 123°
2026-05-04 17:09 -1.65571 168.62715 34859 ft 476 kts 124°
2026-05-04 17:10 -1.74592 168.76573 34857 ft 476 kts 124°
2026-05-04 17:11 -1.78196 168.82107 34858 ft 476 kts 124°
2026-05-04 17:12 -1.83601 168.90415 34858 ft 477 kts 124°
2026-05-04 17:13 -1.92630 169.04290 34858 ft 477 kts 124°
2026-05-04 17:14 -1.99867 169.15416 34858 ft 478 kts 124°
2026-05-04 17:15 -2.05315 169.23792 34858 ft 479 kts 124°
2026-05-04 17:16 -2.12567 169.34944 34860 ft 480 kts 124°
2026-05-04 17:17 -2.19810 169.46083 34859 ft 480 kts 124°
2026-05-04 17:18 -2.27066 169.57245 34860 ft 480 kts 124°
2026-05-04 17:19 -2.34306 169.68385 34858 ft 480 kts 124°
2026-05-04 17:20 -2.41559 169.79548 34857 ft 480 kts 124°
2026-05-04 17:20 -2.46988 169.87904 34858 ft 480 kts 124°
2026-05-04 17:21 -2.54249 169.99085 34858 ft 480 kts 124°
2026-05-04 17:22 -2.57929 170.04620 34858 ft 480 kts 125°
2026-05-04 17:23 -2.65330 170.15708 34858 ft 480 kts 125°
2026-05-04 17:24 -2.70868 170.24005 34859 ft 480 kts 125°
2026-05-04 17:25 -2.78265 170.35090 34859 ft 480 kts 125°
2026-05-04 17:26 -2.85646 170.46155 34859 ft 480 kts 125°
2026-05-04 17:27 -2.94890 170.60015 34859 ft 480 kts 125°
2026-05-04 17:28 -3.02292 170.71117 34857 ft 480 kts 125°
2026-05-04 17:29 -3.13370 170.87740 34858 ft 481 kts 125°
2026-05-04 17:31 -3.22381 171.01265 34858 ft 481 kts 125°
2026-05-04 17:32 -3.31638 171.15166 34859 ft 481 kts 125°
2026-05-04 17:33 -3.39039 171.26284 34859 ft 482 kts 125°
2026-05-04 17:34 -3.46459 171.37433 34859 ft 482 kts 124°
2026-05-04 17:35 -3.55733 171.51376 34859 ft 483 kts 125°
2026-05-04 17:36 -3.59440 171.56950 34860 ft 483 kts 124°
2026-05-04 17:36 -3.63151 171.62531 34861 ft 483 kts 124°
2026-05-04 17:37 -3.66872 171.68128 34857 ft 483 kts 124°
2026-05-04 17:37 -3.70583 171.73711 34857 ft 484 kts 124°
2026-05-04 17:38 -3.74297 171.79300 34857 ft 484 kts 124°
2026-05-04 17:38 -3.78011 171.84889 34857 ft 484 kts 124°
2026-05-04 17:39 -3.83594 171.93294 34857 ft 484 kts 124°
2026-05-04 17:39 -3.87304 171.98880 34858 ft 484 kts 124°
2026-05-04 17:40 -3.91015 172.04469 34858 ft 484 kts 124°
2026-05-04 17:40 -3.94740 172.10080 34858 ft 484 kts 124°
2026-05-04 17:41 -3.98450 172.15671 34858 ft 484 kts 124°
2026-05-04 17:41 -4.02163 172.21265 34859 ft 484 kts 124°
2026-05-04 17:42 -4.05888 172.26879 34859 ft 484 kts 124°
2026-05-04 17:42 -4.09605 172.32482 34859 ft 484 kts 124°
2026-05-04 17:43 -4.13313 172.38072 34861 ft 484 kts 124°
2026-05-04 17:43 -4.17026 172.43672 34859 ft 484 kts 124°
2026-05-04 17:44 -4.20752 172.49292 34860 ft 485 kts 124°
2026-05-04 17:44 -4.24468 172.54898 34860 ft 485 kts 124°
2026-05-04 17:45 -4.28184 172.60505 34860 ft 485 kts 124°
2026-05-04 17:45 -4.31911 172.66130 34859 ft 485 kts 124°
2026-05-04 17:46 -4.35633 172.71751 34857 ft 486 kts 124°
2026-05-04 17:46 -4.39354 172.77368 34857 ft 486 kts 124°
2026-05-04 17:47 -4.43074 172.82987 34857 ft 486 kts 124°
2026-05-04 17:47 -4.46808 172.88627 34858 ft 486 kts 124°
2026-05-04 17:48 -4.50528 172.94247 34858 ft 486 kts 124°
2026-05-04 17:48 -4.54249 172.99870 34858 ft 486 kts 124°
2026-05-04 17:49 -4.57982 173.05513 34858 ft 486 kts 124°
2026-05-04 17:49 -4.61698 173.11131 34858 ft 486 kts 124°
2026-05-04 17:50 -4.65422 173.16763 34859 ft 486 kts 124°
2026-05-04 17:50 -4.69146 173.22396 34859 ft 487 kts 124°
2026-05-04 17:51 -4.72886 173.28053 34859 ft 487 kts 124°
2026-05-04 17:51 -4.76608 173.33686 34859 ft 487 kts 124°
2026-05-04 17:52 -4.80336 173.39329 34860 ft 487 kts 124°
2026-05-04 17:52 -4.84079 173.44996 34860 ft 487 kts 124°
2026-05-04 17:53 -4.87808 173.50642 34860 ft 487 kts 124°
2026-05-04 17:53 -4.91535 173.56289 34860 ft 488 kts 124°
2026-05-04 17:54 -4.95265 173.61939 34860 ft 488 kts 124°
2026-05-04 17:54 -4.99003 173.67604 34858 ft 488 kts 124°
2026-05-04 17:55 -5.02732 173.73256 34857 ft 488 kts 124°
2026-05-04 17:55 -5.06463 173.78913 34857 ft 488 kts 124°
2026-05-04 17:56 -5.10206 173.84589 34859 ft 488 kts 124°
2026-05-04 17:56 -5.13939 173.90252 34858 ft 489 kts 124°
2026-05-04 17:57 -5.17676 173.95921 34858 ft 489 kts 124°
2026-05-04 17:57 -5.21412 174.01591 34858 ft 488 kts 124°
2026-05-04 17:58 -5.25153 174.07271 34858 ft 488 kts 124°
2026-05-04 17:58 -5.28887 174.12940 34859 ft 489 kts 124°
2026-05-04 17:59 -5.32615 174.18602 34859 ft 489 kts 124°
2026-05-04 18:00 -5.38230 174.27135 34859 ft 490 kts 124°
2026-05-04 18:00 -5.41968 174.32816 34859 ft 490 kts 124°
2026-05-04 18:01 -5.45708 174.38501 34860 ft 490 kts 124°
2026-05-04 18:01 -5.49456 174.44200 34860 ft 490 kts 124°
2026-05-04 18:02 -5.55052 174.52713 34860 ft 489 kts 124°
2026-05-04 18:02 -5.58779 174.58385 34860 ft 489 kts 124°
2026-05-04 18:03 -5.62519 174.64077 34861 ft 489 kts 124°
2026-05-04 18:03 -5.66246 174.69752 34857 ft 489 kts 124°
2026-05-04 18:04 -5.69974 174.75429 34857 ft 489 kts 124°
2026-05-04 18:05 -5.75573 174.83958 34858 ft 489 kts 124°
2026-05-04 18:05 -5.79292 174.89627 34858 ft 488 kts 124°
2026-05-04 18:06 -5.84870 174.98131 34859 ft 488 kts 124°
2026-05-04 18:06 -5.88601 175.03820 34858 ft 488 kts 124°
2026-05-04 18:07 -5.92317 175.09490 34859 ft 488 kts 124°
2026-05-04 18:07 -5.96032 175.15158 34859 ft 488 kts 124°
2026-05-04 18:08 -5.99747 175.20830 34859 ft 488 kts 124°
2026-05-04 18:08 -6.03480 175.26530 34860 ft 489 kts 124°
2026-05-04 18:09 -6.10923 175.37899 34860 ft 488 kts 124°
2026-05-04 18:10 -6.14650 175.43594 34860 ft 488 kts 124°
2026-05-04 18:10 -6.18364 175.49272 34860 ft 488 kts 124°
2026-05-04 18:11 -6.22075 175.54947 34859 ft 488 kts 124°
2026-05-04 18:11 -6.25772 175.60639 34861 ft 488 kts 123°
2026-05-04 18:12 -6.29404 175.66328 34858 ft 487 kts 123°
2026-05-04 18:12 -6.33051 175.72047 34857 ft 487 kts 123°
2026-05-04 18:13 -6.36693 175.77759 34857 ft 487 kts 123°
2026-05-04 18:14 -6.42167 175.86347 34858 ft 487 kts 123°
2026-05-04 18:14 -6.45804 175.92057 34857 ft 487 kts 123°
2026-05-04 18:15 -6.53111 176.03530 34858 ft 488 kts 123°
2026-05-04 18:16 -6.56752 176.09251 34859 ft 488 kts 123°
2026-05-04 18:16 -6.60397 176.14980 34859 ft 489 kts 123°
2026-05-04 18:17 -6.65884 176.23606 34859 ft 489 kts 123°
2026-05-04 18:18 -6.71362 176.32222 34859 ft 489 kts 123°
2026-05-04 18:18 -6.75017 176.37974 34860 ft 489 kts 123°
2026-05-04 18:19 -6.80514 176.46628 34860 ft 490 kts 123°
2026-05-04 18:19 -6.84171 176.52388 34861 ft 490 kts 123°
2026-05-04 18:20 -6.87827 176.58149 34861 ft 490 kts 123°
2026-05-04 18:20 -6.91491 176.63923 34861 ft 490 kts 123°
2026-05-04 18:21 -6.95147 176.69687 34857 ft 491 kts 123°
2026-05-04 18:21 -6.98808 176.75461 34858 ft 491 kts 123°
2026-05-04 18:22 -7.02468 176.81235 34857 ft 491 kts 123°
2026-05-04 18:22 -7.06142 176.87034 34858 ft 492 kts 123°
2026-05-04 18:23 -7.09808 176.92822 34858 ft 492 kts 123°
2026-05-04 18:23 -7.13472 176.98609 34858 ft 492 kts 123°
2026-05-04 18:24 -7.17145 177.04411 34858 ft 492 kts 123°
2026-05-04 18:24 -7.20815 177.10212 34859 ft 492 kts 124°
2026-05-04 18:25 -7.24480 177.16007 34859 ft 492 kts 123°
2026-05-04 18:25 -7.28144 177.21802 34859 ft 492 kts 123°
2026-05-04 18:26 -7.31825 177.27627 34860 ft 493 kts 124°
2026-05-04 18:26 -7.35496 177.33437 34860 ft 493 kts 124°
2026-05-04 18:27 -7.39163 177.39242 34860 ft 493 kts 124°
2026-05-04 18:27 -7.42848 177.45079 34861 ft 493 kts 124°
2026-05-04 18:28 -7.46520 177.50898 34861 ft 494 kts 124°
2026-05-04 18:28 -7.50192 177.56718 34861 ft 494 kts 124°
2026-05-04 18:29 -7.53874 177.62560 34863 ft 497 kts 124°
2026-05-04 18:29 -7.57577 177.68432 34857 ft 497 kts 124°
2026-05-04 18:30 -7.63108 177.77210 34856 ft 497 kts 124°
2026-05-04 18:31 -7.66792 177.83061 34856 ft 496 kts 124°
2026-05-04 18:31 -7.70496 177.88944 34857 ft 497 kts 124°
2026-05-04 18:32 -7.74185 177.94806 34857 ft 497 kts 124°
2026-05-04 18:32 -7.77878 178.00677 34858 ft 497 kts 124°
2026-05-04 18:33 -7.81578 178.06561 34859 ft 497 kts 124°
2026-05-04 18:33 -7.85263 178.12425 34860 ft 497 kts 124°
2026-05-04 18:34 -7.88947 178.18289 34859 ft 497 kts 124°
2026-05-04 18:34 -7.92637 178.24163 34860 ft 497 kts 124°
2026-05-04 18:35 -7.96337 178.30058 34860 ft 497 kts 124°
2026-05-04 18:35 -8.00019 178.35926 34860 ft 497 kts 124°
2026-05-04 18:36 -8.03707 178.41804 34861 ft 497 kts 124°
2026-05-04 18:36 -8.07404 178.47702 34861 ft 498 kts 124°
2026-05-04 18:37 -8.11094 178.53590 34862 ft 498 kts 124°
2026-05-04 18:37 -8.14783 178.59477 34862 ft 498 kts 124°
2026-05-04 18:38 -8.18469 178.65362 34863 ft 498 kts 124°
2026-05-04 18:38 -8.22168 178.71270 34856 ft 497 kts 124°
2026-05-04 18:39 -8.25846 178.77150 34857 ft 497 kts 124°
2026-05-04 18:39 -8.29528 178.83037 34857 ft 497 kts 124°
2026-05-04 18:40 -8.33216 178.88935 34857 ft 497 kts 124°
2026-05-04 18:40 -8.36896 178.94824 34857 ft 498 kts 124°
2026-05-04 18:41 -8.40576 179.00715 34857 ft 498 kts 124°
2026-05-04 18:41 -8.44256 179.06610 34859 ft 498 kts 124°
2026-05-04 18:42 -8.47949 179.12527 34859 ft 498 kts 124°
2026-05-04 18:42 -8.51625 179.18419 34859 ft 498 kts 124°
2026-05-04 18:43 -8.55288 179.24286 34860 ft 498 kts 124°
2026-05-04 18:43 -8.58977 179.30196 34860 ft 498 kts 124°
2026-05-04 18:44 -8.62657 179.36092 34861 ft 498 kts 124°
2026-05-04 18:44 -8.66339 179.41996 34861 ft 498 kts 124°
2026-05-04 18:45 -8.70012 179.47886 34861 ft 498 kts 124°
2026-05-04 18:45 -8.73703 179.53809 34862 ft 498 kts 124°
2026-05-04 18:46 -8.77377 179.59707 34863 ft 498 kts 124°
2026-05-04 18:46 -8.81054 179.65613 34861 ft 498 kts 124°
2026-05-04 18:47 -8.84742 179.71540 34856 ft 499 kts 124°
2026-05-04 18:47 -8.88426 179.77462 34856 ft 499 kts 124°
2026-05-04 18:48 -8.92108 179.83383 34857 ft 499 kts 124°
2026-05-04 18:48 -8.95786 179.89300 34858 ft 499 kts 124°
2026-05-04 18:49 -8.99480 179.95248 34858 ft 499 kts 124°
2026-05-04 18:49 -9.03163 -179.98822 34870 ft 500 kts 124°
2026-05-04 18:50 -9.06846 -179.92888 34886 ft 500 kts 123°
2026-05-04 18:50 -9.10538 -179.86936 34886 ft 500 kts 123°
2026-05-04 18:51 -9.14228 -179.80984 34886 ft 501 kts 123°
2026-05-04 18:51 -9.17914 -179.75038 34887 ft 501 kts 123°
2026-05-04 18:52 -9.21586 -179.69110 34887 ft 501 kts 123°
2026-05-04 18:52 -9.25288 -179.63131 34888 ft 501 kts 123°
2026-05-04 18:53 -9.28978 -179.57170 34888 ft 501 kts 123°
2026-05-04 18:53 -9.32667 -179.51206 34888 ft 501 kts 123°
2026-05-04 18:54 -9.36374 -179.45211 34882 ft 501 kts 123°
2026-05-04 18:54 -9.40061 -179.39245 34883 ft 501 kts 123°
2026-05-04 18:55 -9.43744 -179.33281 34883 ft 501 kts 123°
2026-05-04 18:55 -9.49283 -179.24309 34883 ft 501 kts 123°
2026-05-04 18:56 -9.52966 -179.18340 34884 ft 501 kts 123°
2026-05-04 18:56 -9.56645 -179.12373 34884 ft 501 kts 123°
2026-05-04 18:57 -9.60325 -179.06403 34885 ft 501 kts 123°
2026-05-04 18:57 -9.64016 -179.00411 34885 ft 502 kts 123°
2026-05-04 18:58 -9.67694 -178.94438 34886 ft 502 kts 123°
2026-05-04 18:58 -9.71370 -178.88465 34887 ft 502 kts 123°
2026-05-04 18:59 -9.75059 -178.82468 34887 ft 502 kts 123°
2026-05-04 18:59 -9.78734 -178.76491 34887 ft 502 kts 123°
2026-05-04 19:00 -9.82407 -178.70512 34888 ft 502 kts 123°
2026-05-04 19:00 -9.86089 -178.64517 34887 ft 502 kts 123°
2026-05-04 19:01 -9.89776 -178.58512 34889 ft 502 kts 123°
2026-05-04 19:01 -9.93445 -178.52531 34889 ft 502 kts 123°
2026-05-04 19:02 -9.97120 -178.46539 34883 ft 502 kts 123°
2026-05-04 19:02 -10.00810 -178.40519 34883 ft 503 kts 123°
2026-05-04 19:03 -10.04485 -178.34519 34883 ft 503 kts 123°
2026-05-04 19:03 -10.08163 -178.28512 34884 ft 503 kts 123°
2026-05-04 19:04 -10.11838 -178.22508 34883 ft 502 kts 123°
2026-05-04 19:04 -10.15522 -178.16484 34883 ft 502 kts 123°
2026-05-04 19:05 -10.19187 -178.10488 34884 ft 502 kts 123°
2026-05-04 19:05 -10.22773 -178.04619 34884 ft 502 kts 123°
2026-05-04 19:06 -10.26447 -177.98603 34885 ft 502 kts 123°
2026-05-04 19:06 -10.30111 -177.92600 34885 ft 502 kts 123°
2026-05-04 19:07 -10.33783 -177.86580 34886 ft 503 kts 123°
2026-05-04 19:07 -10.37453 -177.80561 34888 ft 503 kts 123°
2026-05-04 19:08 -10.41136 -177.74517 34887 ft 503 kts 123°
2026-05-04 19:08 -10.44801 -177.68499 34887 ft 503 kts 123°
2026-05-04 19:09 -10.48480 -177.62455 34888 ft 504 kts 123°
2026-05-04 19:09 -10.52167 -177.56395 34888 ft 504 kts 123°
2026-05-04 19:10 -10.55843 -177.50349 34889 ft 504 kts 123°
2026-05-04 19:10 -10.59523 -177.44294 34890 ft 505 kts 123°
2026-05-04 19:11 -10.63198 -177.38244 34890 ft 505 kts 123°
2026-05-04 19:11 -10.66893 -177.32156 34884 ft 505 kts 123°
2026-05-04 19:12 -10.72411 -177.23059 34884 ft 506 kts 123°
2026-05-04 19:13 -10.76091 -177.16989 34884 ft 506 kts 123°
2026-05-04 19:13 -10.79786 -177.10889 34885 ft 506 kts 123°
2026-05-04 19:14 -10.83464 -177.04815 34885 ft 506 kts 123°
2026-05-04 19:14 -10.87144 -176.98734 34886 ft 506 kts 123°
2026-05-04 19:15 -10.90838 -176.92626 34887 ft 507 kts 123°
2026-05-04 19:15 -10.94519 -176.86536 34887 ft 507 kts 123°
2026-05-04 19:16 -10.97917 -176.80910 34888 ft 507 kts 123°
2026-05-04 19:16 -11.01599 -176.74812 34889 ft 507 kts 123°
2026-05-04 19:17 -11.05289 -176.68698 34889 ft 507 kts 123°
2026-05-04 19:17 -11.08966 -176.62600 34889 ft 507 kts 123°
2026-05-04 19:18 -11.12645 -176.56495 34888 ft 508 kts 123°
2026-05-04 19:18 -11.16342 -176.50359 34889 ft 508 kts 123°
2026-05-04 19:19 -11.20019 -176.44253 34889 ft 508 kts 123°
2026-05-04 19:19 -11.23696 -176.38140 34890 ft 508 kts 123°
2026-05-04 19:20 -11.27371 -176.32027 34883 ft 508 kts 123°
2026-05-04 19:20 -11.31061 -176.25887 34882 ft 508 kts 123°
2026-05-04 19:21 -11.34734 -176.19773 34883 ft 508 kts 123°
2026-05-04 19:21 -11.38414 -176.13641 34884 ft 509 kts 123°
2026-05-04 19:22 -11.42106 -176.07485 34884 ft 509 kts 123°
2026-05-04 19:22 -11.45783 -176.01352 34885 ft 509 kts 123°
2026-05-04 19:23 -11.49455 -175.95223 34886 ft 509 kts 123°
2026-05-04 19:23 -11.53125 -175.89093 34886 ft 509 kts 123°
2026-05-04 19:24 -11.56808 -175.82939 34887 ft 509 kts 123°
2026-05-04 19:24 -11.60479 -175.76801 34887 ft 509 kts 123°
2026-05-04 19:25 -11.64146 -175.70664 34888 ft 509 kts 123°
2026-05-04 19:25 -11.67823 -175.64509 34889 ft 509 kts 123°
2026-05-04 19:26 -11.71491 -175.58363 34889 ft 509 kts 123°
2026-05-04 19:26 -11.75152 -175.52228 34890 ft 508 kts 123°
2026-05-04 19:27 -11.78810 -175.46093 34891 ft 508 kts 123°
2026-05-04 19:27 -11.82480 -175.39933 34891 ft 507 kts 123°
2026-05-04 19:28 -11.86127 -175.33807 34887 ft 507 kts 122°
2026-05-04 19:28 -11.89773 -175.27679 34884 ft 507 kts 122°
2026-05-04 19:29 -11.93435 -175.21521 34884 ft 507 kts 122°
2026-05-04 19:29 -11.97076 -175.15397 34885 ft 506 kts 122°
2026-05-04 19:30 -12.00708 -175.09281 34884 ft 507 kts 122°
2026-05-04 19:30 -12.04346 -175.03152 34887 ft 506 kts 122°
2026-05-04 19:31 -12.07990 -174.97008 34887 ft 506 kts 122°
2026-05-04 19:31 -12.11620 -174.90883 34885 ft 506 kts 122°
2026-05-04 19:32 -12.15253 -174.84752 34885 ft 505 kts 122°
2026-05-04 19:32 -12.18884 -174.78620 34886 ft 505 kts 122°
2026-05-04 19:33 -12.22499 -174.72507 34886 ft 504 kts 122°
2026-05-04 19:33 -12.26125 -174.66375 34887 ft 504 kts 122°
2026-05-04 19:34 -12.29735 -174.60265 34887 ft 503 kts 122°
2026-05-04 19:34 -12.33357 -174.54131 34888 ft 504 kts 122°
2026-05-04 19:35 -12.36956 -174.48033 34889 ft 502 kts 122°
2026-05-04 19:35 -12.40540 -174.41955 34889 ft 503 kts 122°
2026-05-04 19:36 -12.44148 -174.35833 34889 ft 503 kts 122°
2026-05-04 19:36 -12.47739 -174.29735 34883 ft 503 kts 122°
2026-05-04 19:37 -12.51354 -174.23642 34883 ft 502 kts 122°
2026-05-04 19:37 -12.54973 -174.17555 34883 ft 502 kts 122°
2026-05-04 19:38 -12.58599 -174.11452 34885 ft 503 kts 122°
2026-05-04 19:38 -12.62215 -174.05365 34885 ft 503 kts 122°
2026-05-04 19:39 -12.65833 -173.99268 34886 ft 502 kts 122°
2026-05-04 19:39 -12.69437 -173.93189 34886 ft 500 kts 122°
2026-05-04 19:40 -12.73031 -173.87125 34887 ft 500 kts 122°
2026-05-04 19:40 -12.76620 -173.81065 34887 ft 500 kts 122°
2026-05-04 19:41 -12.80212 -173.74997 34888 ft 501 kts 122°
2026-05-04 19:41 -12.83819 -173.68899 34888 ft 501 kts 122°
2026-05-04 19:42 -12.87412 -173.62818 34888 ft 501 kts 122°
2026-05-04 19:42 -12.91002 -173.56741 34889 ft 501 kts 122°
2026-05-04 19:43 -12.94604 -173.50640 34889 ft 500 kts 122°
2026-05-04 19:43 -12.98188 -173.44563 34889 ft 500 kts 122°
2026-05-04 19:44 -13.01767 -173.38491 34890 ft 500 kts 122°
2026-05-04 19:44 -13.05347 -173.32414 34885 ft 500 kts 121°
2026-05-04 19:45 -13.08932 -173.26323 34885 ft 500 kts 121°
2026-05-04 19:45 -13.12435 -173.20368 34883 ft 500 kts 121°
2026-05-04 19:46 -13.16010 -173.14286 34883 ft 498 kts 121°
2026-05-04 19:46 -13.19322 -173.08648 34884 ft 499 kts 121°
2026-05-04 19:47 -13.22886 -173.02578 34884 ft 499 kts 121°
2026-05-04 19:47 -13.26451 -172.96502 34885 ft 499 kts 122°
2026-05-04 19:48 -13.30011 -172.90429 34886 ft 499 kts 122°
2026-05-04 19:48 -13.33578 -172.84339 34885 ft 497 kts 122°
2026-05-04 19:48 -13.35323 -172.81358 34875 ft 482 kts 122°
2026-05-04 19:49 -13.37037 -172.78430 34883 ft 480 kts 122°
2026-05-04 19:49 -13.40466 -172.72569 34887 ft 480 kts 122°
2026-05-04 19:50 -13.43905 -172.66687 34887 ft 480 kts 122°
2026-05-04 19:50 -13.47330 -172.60827 34204 ft 478 kts 122°
2026-05-04 19:50 -13.49020 -172.57932 33600 ft 471 kts 122°
2026-05-04 19:51 -13.50689 -172.55074 32999 ft 465 kts 121°
2026-05-04 19:51 -13.52335 -172.52253 32401 ft 460 kts 121°
2026-05-04 19:51 -13.53963 -172.49463 31803 ft 455 kts 121°
2026-05-04 19:51 -13.55587 -172.46677 31200 ft 451 kts 121°
2026-05-04 19:52 -13.57182 -172.43941 30603 ft 447 kts 121°
2026-05-04 19:52 -13.58750 -172.41227 30005 ft 441 kts 121°
2026-05-04 19:52 -13.60303 -172.38534 29335 ft 438 kts 121°
2026-05-04 19:52 -13.61841 -172.35866 28647 ft 435 kts 121°
2026-05-04 19:53 -13.63362 -172.33226 27956 ft 431 kts 120°
2026-05-04 19:53 -13.64876 -172.30599 27262 ft 428 kts 120°
2026-05-04 19:53 -13.66389 -172.27973 26563 ft 425 kts 120°
2026-05-04 19:53 -13.67884 -172.25374 25868 ft 422 kts 120°
2026-05-04 19:54 -13.69368 -172.22797 25173 ft 419 kts 120°
2026-05-04 19:54 -13.70836 -172.20245 24467 ft 411 kts 120°
2026-05-04 19:54 -13.72268 -172.17758 23765 ft 401 kts 120°
2026-05-04 19:54 -13.73664 -172.15328 23069 ft 395 kts 120°
2026-05-04 19:55 -13.75044 -172.12926 22370 ft 389 kts 120°
2026-05-04 19:55 -13.76412 -172.10547 21778 ft 379 kts 120°
2026-05-04 19:55 -13.77756 -172.08209 21330 ft 373 kts 120°
2026-05-04 19:55 -13.79065 -172.05929 20881 ft 370 kts 120°
2026-05-04 19:56 -13.80367 -172.03662 20437 ft 370 kts 120°
2026-05-04 19:56 -13.81703 -172.01335 19983 ft 370 kts 120°
2026-05-04 19:56 -13.82939 -171.99018 19525 ft 369 kts 112°
2026-05-04 19:56 -13.83939 -171.96596 19093 ft 367 kts 112°
2026-05-04 19:57 -13.84923 -171.94152 18644 ft 366 kts 112°
2026-05-04 19:57 -13.85891 -171.91732 18199 ft 365 kts 111°
2026-05-04 19:57 -13.86852 -171.89324 17755 ft 363 kts 111°
2026-05-04 19:57 -13.87754 -171.87064 17338 ft 361 kts 111°
2026-05-04 19:58 -13.88698 -171.84697 16894 ft 358 kts 111°
2026-05-04 19:58 -13.89633 -171.82349 16453 ft 355 kts 111°
2026-05-04 19:58 -13.90559 -171.80025 16012 ft 352 kts 111°
2026-05-04 19:58 -13.91486 -171.77696 15570 ft 350 kts 111°
2026-05-04 19:59 -13.92401 -171.75397 15128 ft 347 kts 111°
2026-05-04 19:59 -13.93308 -171.73118 14688 ft 344 kts 111°
2026-05-04 19:59 -13.94208 -171.70853 14249 ft 341 kts 110°
2026-05-04 19:59 -13.95104 -171.68601 13807 ft 338 kts 110°
2026-05-04 20:00 -13.96064 -171.66417 13354 ft 336 kts 120°
2026-05-04 20:00 -13.97080 -171.64276 12934 ft 333 kts 112°
2026-05-04 20:00 -13.98019 -171.62094 12493 ft 331 kts 112°
2026-05-04 20:00 -13.98946 -171.59942 12052 ft 328 kts 112°
2026-05-04 20:01 -13.99868 -171.57814 11615 ft 325 kts 112°
2026-05-04 20:01 -14.00793 -171.55705 11170 ft 323 kts 117°
2026-05-04 20:01 -14.02111 -171.53858 10859 ft 318 kts 127°
2026-05-04 20:01 -14.03428 -171.52032 10612 ft 317 kts 124°
2026-05-04 20:02 -14.04695 -171.50185 10369 ft 316 kts 124°
2026-05-04 20:02 -14.05965 -171.48337 10239 ft 315 kts 124°
2026-05-04 20:02 -14.07228 -171.46501 9992 ft 314 kts 124°
2026-05-04 20:02 -14.08487 -171.44673 9740 ft 312 kts 124°
2026-05-04 20:03 -14.09736 -171.42860 9493 ft 310 kts 124°
2026-05-04 20:03 -14.10960 -171.41083 9227 ft 297 kts 124°
2026-05-04 20:03 -14.12130 -171.39384 8957 ft 284 kts 124°
2026-05-04 20:03 -14.13248 -171.37760 8687 ft 273 kts 124°
2026-05-04 20:04 -14.14369 -171.36131 8405 ft 263 kts 124°
2026-05-04 20:04 -14.15445 -171.34567 8128 ft 254 kts 124°
2026-05-04 20:04 -14.16447 -171.33109 7859 ft 247 kts 124°
2026-05-04 20:04 -14.17424 -171.31690 7634 ft 241 kts 124°
2026-05-04 20:05 -14.18405 -171.30263 7492 ft 242 kts 124°
2026-05-04 20:05 -14.19366 -171.28863 7454 ft 245 kts 124°
2026-05-04 20:05 -14.20325 -171.27470 7269 ft 230 kts 124°
2026-05-04 20:05 -14.21218 -171.26172 7057 ft 216 kts 124°
2026-05-04 20:06 -14.22083 -171.24913 6877 ft 216 kts 124°
2026-05-04 20:06 -14.22946 -171.23655 6704 ft 216 kts 124°
2026-05-04 20:06 -14.23812 -171.22395 6531 ft 216 kts 124°
2026-05-04 20:06 -14.24674 -171.21139 6355 ft 215 kts 124°
2026-05-04 20:07 -14.25534 -171.19888 6179 ft 214 kts 124°
2026-05-04 20:07 -14.26390 -171.18641 6004 ft 213 kts 124°
2026-05-04 20:07 -14.27248 -171.17390 5827 ft 213 kts 124°
2026-05-04 20:07 -14.28070 -171.16192 5655 ft 208 kts 124°
2026-05-04 20:08 -14.28870 -171.15028 5448 ft 192 kts 124°
2026-05-04 20:08 -14.29625 -171.13929 5249 ft 186 kts 124°
2026-05-04 20:08 -14.30364 -171.12850 5075 ft 185 kts 124°
2026-05-04 20:08 -14.31106 -171.11768 4903 ft 186 kts 124°
2026-05-04 20:09 -14.31856 -171.10676 4731 ft 185 kts 124°
2026-05-04 20:09 -14.32595 -171.09599 4582 ft 183 kts 124°
2026-05-04 20:09 -14.33333 -171.08522 4433 ft 185 kts 124°
2026-05-04 20:09 -14.34071 -171.07446 4260 ft 184 kts 124°
2026-05-04 20:10 -14.34806 -171.06374 4085 ft 183 kts 124°
2026-05-04 20:10 -14.35537 -171.05308 3909 ft 183 kts 124°
2026-05-04 20:10 -14.36268 -171.04242 3734 ft 182 kts 125°
2026-05-04 20:10 -14.36991 -171.03186 3559 ft 181 kts 125°
2026-05-04 20:11 -14.37719 -171.02124 3385 ft 180 kts 125°
2026-05-04 20:11 -14.38442 -171.01070 3212 ft 179 kts 125°
2026-05-04 20:11 -14.39157 -171.00026 3036 ft 179 kts 125°
2026-05-04 20:11 -14.39870 -170.98985 2861 ft 178 kts 125°
2026-05-04 20:12 -14.40582 -170.97946 2688 ft 178 kts 125°
2026-05-04 20:12 -14.41291 -170.96909 2518 ft 177 kts 125°
2026-05-04 20:12 -14.42000 -170.95875 2343 ft 177 kts 125°
2026-05-04 20:12 -14.42712 -170.94835 2169 ft 176 kts 125°
2026-05-04 20:13 -14.43375 -170.93868 1952 ft 156 kts 125°
2026-05-04 20:13 -14.43985 -170.92975 1752 ft 152 kts 125°
2026-05-04 20:13 -14.44590 -170.92089 1756 ft 153 kts 123°
2026-05-04 20:13 -14.44806 -170.91049 1737 ft 151 kts 78°
2026-05-04 20:14 -14.44443 -170.90046 1762 ft 150 kts 62°
2026-05-04 20:14 -14.43951 -170.89092 1757 ft 149 kts 58°
2026-05-04 20:14 -14.43422 -170.88163 1739 ft 149 kts 56°
2026-05-04 20:14 -14.42885 -170.87255 1744 ft 149 kts 56°
2026-05-04 20:15 -14.42342 -170.86351 1776 ft 149 kts 55°
2026-05-04 20:15 -14.41793 -170.85452 1791 ft 148 kts 56°
2026-05-04 20:15 -14.41249 -170.84550 1762 ft 148 kts 56°
2026-05-04 20:15 -14.40705 -170.83653 1771 ft 148 kts 56°
2026-05-04 20:16 -14.40147 -170.82736 1404 ft 147 kts 57°
2026-05-04 20:16 -14.39553 -170.81896 1308 ft 144 kts 51°
2026-05-04 20:16 -14.38928 -170.81084 1246 ft 145 kts 53°
2026-05-04 20:16 -14.38358 -170.80223 1162 ft 145 kts 59°
2026-05-04 20:17 -14.37859 -170.79354 1106 ft 147 kts 59°
2026-05-04 20:17 -14.37336 -170.78461 994 ft 145 kts 60°
2026-05-04 20:17 -14.36838 -170.77560 1017 ft 146 kts 60°
2026-05-04 20:17 -14.36360 -170.76637 877 ft 149 kts 55°
2026-05-04 20:18 -14.35805 -170.75734 893 ft 150 kts 59°
2026-05-04 20:18 -14.35320 -170.74828 910 ft 148 kts 62°
2026-05-04 20:18 -14.34851 -170.73914 806 ft 143 kts 61°
2026-05-04 20:18 -14.34328 -170.73052 491 ft 142 kts 59°
2026-05-04 20:19 -14.33851 -170.72193 190 ft 134 kts 60°
2026-05-04 20:19 -14.33417 -170.71412 27 ft 113 kts 60°
2026-05-04 20:19 -14.33175 -170.70974 21 ft 30 kts 49°
2026-05-04 20:19 -14.33074 -170.70986 22 ft 0 kts 320°
2026-05-04 20:20 -14.33051 -170.71006 23 ft 16 kts 320°
2026-05-04 20:21 -14.32921 -170.71119 25 ft 23 kts 314°
2026-05-04 20:21 -14.32818 -170.71179 28 ft 10 kts 303°
2026-05-04 20:21 -14.32877 -170.71235 27 ft 0 kts 192°